TimeCST,TemperatureF,Dew PointF,Humidity,Sea Level PressureIn,VisibilityMPH,Wind Direction,Wind SpeedMPH,Gust SpeedMPH,PrecipitationIn,Events,Conditions,WindDirDegrees,DateUTC
12:53 AM,19.9,15.1,81,30.35,10.0,West,4.6,-,N/A,,Clear,260,2012-11-13 06:53:00
1:53 AM,19.9,16.0,85,30.36,10.0,WSW,5.8,-,N/A,,Clear,250,2012-11-13 07:53:00
2:53 AM,19.0,15.1,85,30.37,10.0,SW,3.5,-,N/A,,Clear,220,2012-11-13 08:53:00
3:53 AM,19.0,14.0,81,30.36,10.0,Calm,Calm,-,N/A,,Clear,0,2012-11-13 09:53:00
4:53 AM,19.0,14.0,81,30.37,10.0,Calm,Calm,-,N/A,,Clear,0,2012-11-13 10:53:00
5:53 AM,19.0,14.0,81,30.39,10.0,SSW,5.8,-,N/A,,Clear,210,2012-11-13 11:53:00
6:53 AM,19.9,14.0,78,30.40,10.0,Calm,Calm,-,N/A,,Clear,0,2012-11-13 12:53:00
7:53 AM,19.9,15.1,81,30.41,10.0,SE,3.5,-,N/A,,Clear,130,2012-11-13 13:53:00
8:53 AM,23.0,16.0,74,30.40,10.0,SSE,5.8,-,N/A,,Clear,150,2012-11-13 14:53:00
9:53 AM,28.0,18.0,66,30.41,10.0,SSE,5.8,-,N/A,,Scattered Clouds,150,2012-11-13 15:53:00
10:53 AM,30.9,19.0,61,30.39,10.0,South,4.6,-,N/A,,Scattered Clouds,170,2012-11-13 16:53:00
11:53 AM,35.1,19.9,54,30.37,10.0,SE,5.8,-,N/A,,Scattered Clouds,140,2012-11-13 17:53:00
12:53 PM,39.9,19.9,45,30.35,10.0,South,8.1,-,N/A,,Scattered Clouds,170,2012-11-13 18:53:00
1:53 PM,42.1,19.9,41,30.33,10.0,South,8.1,-,N/A,,Scattered Clouds,190,2012-11-13 19:53:00
2:53 PM,43.0,19.0,38,30.32,10.0,South,8.1,-,N/A,,Mostly Cloudy,180,2012-11-13 20:53:00
3:53 PM,41.0,21.9,47,30.32,10.0,SSE,9.2,-,N/A,,Mostly Cloudy,160,2012-11-13 21:53:00
4:53 PM,41.0,24.1,51,30.32,10.0,South,6.9,-,N/A,,Mostly Cloudy,170,2012-11-13 22:53:00
5:53 PM,37.0,26.1,65,30.32,10.0,SE,9.2,-,N/A,,Overcast,140,2012-11-13 23:53:00
6:53 PM,37.0,26.1,65,30.32,10.0,SSE,6.9,-,N/A,,Overcast,150,2012-11-14 00:53:00
7:53 PM,37.0,27.0,67,30.32,10.0,SE,4.6,-,N/A,,Overcast,140,2012-11-14 01:53:00
8:53 PM,37.0,27.0,67,30.33,10.0,SSE,6.9,-,N/A,,Overcast,160,2012-11-14 02:53:00
9:53 PM,39.0,26.1,60,30.32,10.0,South,10.4,-,N/A,,Overcast,170,2012-11-14 03:53:00
10:53 PM,37.9,27.0,65,30.32,10.0,SSE,6.9,-,N/A,,Overcast,150,2012-11-14 04:53:00
11:53 PM,37.0,27.0,67,30.31,10.0,SE,6.9,-,N/A,,Overcast,130,2012-11-14 05:53:00